Location: Unspecified
(58.9933°N, 5.6375°E)
Time: 21:36:42
(UTC+01:00)

Okean 3 - Visible Passes

Search period start: 27 February 2017 00:00
Search period end: 09 March 2017 00:00
Orbit: 579 x 602 km, 82.5° (Epoch: 26 February)

Date Brightness Start Highest point End Pass type
(mag) Time Alt. Az. Time Alt. Az. Time Alt. Az.
27 Feb 6.9 05:18:25 10° ESE 05:20:30 13° E 05:22:34 10° NE visible
27 Feb 3.9 06:52:42 10° S 06:57:00 72° E 07:01:20 10° NNE visible
28 Feb 6.6 05:25:46 10° ESE 05:28:37 17° E 05:31:29 10° NE visible
01 Mar 6.2 05:33:24 10° SE 05:36:47 23° E 05:40:10 10° NE visible
01 Mar 6.7 18:43:01 10° NW 18:45:45 17° W 18:48:29 10° WSW visible
02 Mar 5.7 05:41:13 10° SSE 05:44:58 30° E 05:48:45 10° NNE visible
02 Mar 6.9 18:51:59 10° NW 18:53:52 13° WNW 18:55:46 10° WSW visible
03 Mar 5.1 05:49:11 10° SSE 05:53:12 39° E 05:57:14 10° NNE visible
04 Mar 4.4 05:57:15 10° S 06:01:27 52° E 06:05:41 10° NNE visible
05 Mar 6.7 04:31:15 10° ESE 04:33:15 13° ENE 04:35:16 10° NE visible
05 Mar 3.9 06:05:27 10° S 06:09:45 71° E 06:14:04 10° NNE visible
06 Mar 6.5 04:38:34 10° ESE 04:41:22 17° E 04:44:12 10° NE visible
06 Mar 3.5 06:13:44 10° SSW 06:18:04 87° W 06:22:26 10° NNE visible
07 Mar 6.1 04:46:11 10° SE 04:49:32 22° E 04:52:53 10° NE visible
07 Mar 3.5 06:22:08 10° SSW 06:26:26 65° WNW 06:30:45 10° N visible
08 Mar 5.6 04:54:00 10° SSE 04:57:43 29° E 05:01:27 10° NNE visible
08 Mar 3.7 06:30:38 10° SW 06:34:49 49° WNW 06:39:03 10° N visible
